[[{"header":{"parameterUnit":"m.s-1","parameterCategory":1,"la1":30.2991,"la2":30.254,"lo1":-89.0895,"lo2":-89.0444,"dy":0.0017,"dx":0.0017,"nx":28,"ny":28,"refTime":"2025-02-12T09:00:00:Z","depth":0,"parameterNumber":2,"parameterNumberName":"U-component_of_WINDS"},"data":[0,0,0,0,0,0,0,0,0,0,0,0,0,0,0,0,0,0,0,0,0,0,0,0,0,0,0,0,0,0,0,0,0,0,0,0,0,0,0,0,0,0,0,0,0,0,0,0,0,0,0,0,0,0,0,0,0,0,-1.6697,-1.6697,0,-1.6656,-1.6655,-1.6655,-1.6637,-1.6637,-1.6637,-1.6637,-1.6589,-1.6588,-1.6586,0,0,0,0,0,0,0,0,0,0,0,0,0,-1.6757,-1.6756,-1.6698,-1.6697,-1.6696,-1.6656,-1.6655,-1.6654,-1.6637,-1.6637,-1.6637,-1.6637,-1.659,-1.6588,-1.6586,0,0,0,0,0,0,0,0,0,0,0,0,0,-1.6725,-1.6756,-1.6698,-1.6683,-1.6681,-1.6656,-1.6655,-1.6654,-1.6637,-1.6637,-1.6637,-1.6637,-1.659,-1.6588,-1.6586,-1.657,0,0,-1.658,-1.6579,0,0,0,0,0,0,0,0,-1.6727,-1.6723,-1.6686,-1.6684,-1.6682,-1.6652,-1.6658,-1.6626,-1.6637,-1.6654,-1.6637,-1.6637,-1.6609,-1.6606,-1.6597,-1.6568,-1.6566,-1.658,-1.6578,-1.6577,-1.6577,0,0,0,0,0,0,0,-1.6729,-1.6724,-1.6681,-1.6685,-1.6683,-1.6677,-1.6672,-1.6652,-1.6631,-1.6652,-1.6651,-1.6646,-1.6608,-1.66,-1.6596,-1.6565,-1.658,-1.6578,-1.6577,-1.6576,-1.652,-1.652,0,0,0,0,0,0,-1.6734,-1.6726,-1.6682,-1.6679,-1.6705,-1.6676,-1.6671,-1.6661,-1.6631,-1.6627,-1.6646,-1.6646,-1.6603,-1.6599,-1.6594,-1.6574,-1.6577,-1.6576,-1.6574,-1.652,-1.652,-1.652,0,0,0,0,0,0,-1.6736,-1.6731,-1.6684,-1.6703,-1.6696,-1.6674,-1.6664,-1.666,-1.6651,-1.6627,-1.6622,-1.6641,-1.6603,-1.6597,-1.6577,-1.6572,-1.6575,-1.6573,-1.6521,-1.652,-1.652,-1.6532,0,0,0,0,0,0,-1.6737,-1.6731,-1.6726,-1.6703,-1.6695,-1.6668,-1.6664,-1.6659,-1.6649,-1.6647,-1.6621,-1.6617,-1.6603,-1.658,-1.6575,-1.6569,-1.6571,-1.6521,-1.652,-1.652,-1.6532,-1.6533,-1.6533,0,0,0,0,0,-1.674,-1.6731,-1.6726,-1.6721,-1.6689,-1.6668,-1.6664,-1.6649,-1.6648,-1.6642,-1.6626,-1.6618,-1.6573,-1.6578,-1.6572,-1.6566,-1.6521,-1.652,-1.652,-1.6532,-1.6533,-1.6533,0,0,0,0,0,0,-1.6753,-1.6727,-1.6722,-1.6705,-1.6689,-1.6665,-1.6658,-1.665,-1.6632,-1.6632,-1.6613,-1.6607,-1.6587,-1.6574,-1.658,-1.6548,-1.6546,-1.6544,-1.6558,-1.6558,-1.6558,-1.6561,-1.6569,0,0,0,0,0,-1.6754,-1.6741,-1.6719,-1.6706,-1.6698,-1.6679,-1.667,-1.666,-1.6642,-1.6634,-1.6617,-1.6598,-1.658,-1.6568,-1.655,-1.653,-1.6524,-1.6523,-1.6523,-1.6523,-1.6522,-1.6509,-1.6509,-1.6518,-1.6518,-1.6518,0,0,-1.6756,-1.674,-1.6733,-1.6708,-1.6695,-1.668,-1.6674,-1.6658,-1.6647,-1.6631,-1.6611,-1.6598,-1.6575,-1.6555,-1.6545,-1.6543,-1.6518,-1.6523,-1.6523,-1.6521,-1.6509,-1.6508,-1.6507,-1.6517,-1.6518,-1.6518,0,0,-1.6752,-1.6739,-1.6727,-1.6714,-1.6694,-1.6681,-1.6678,-1.6655,-1.6646,-1.6626,-1.6614,-1.6599,-1.6568,-1.6552,-1.654,-1.653,-1.6521,-1.6524,-1.6525,-1.6513,-1.6512,-1.6512,-1.6507,-1.6506,-1.6523,-1.6523,-1.6523,0,-1.6756,-1.6735,-1.6721,-1.6707,-1.6696,-1.6683,-1.6669,-1.6656,-1.6631,-1.6622,-1.6621,-1.6582,-1.6566,-1.6542,-1.6539,-1.653,-1.6525,-1.6527,-1.6514,-1.6513,-1.6512,-1.6507,-1.6506,-1.6523,-1.6523,-1.6523,-1.6523,0,-1.6741,-1.6726,-1.6719,-1.6696,-1.6684,-1.667,-1.6653,-1.6642,-1.6633,-1.662,-1.6598,-1.6579,-1.6556,-1.655,-1.654,-1.6523,-1.6523,-1.6518,-1.6516,-1.6512,-1.6507,-1.6505,-1.6524,-1.6524,-1.6524,-1.6524,0,0,-1.6744,-1.6714,-1.6711,-1.6701,-1.6677,-1.6665,-1.6649,-1.6629,-1.662,-1.6602,-1.6588,-1.6562,-1.6557,-1.6544,-1.6532,-1.6522,-1.6514,-1.6518,-1.6517,-1.6517,-1.6493,-1.6496,-1.6494,-1.6508,-1.6507,-1.6507,-1.6494,0,-1.6736,-1.6711,-1.6697,-1.6676,-1.6662,-1.6649,-1.6635,-1.6619,-1.6606,-1.659,-1.6575,-1.6557,-1.6553,-1.6545,-1.6534,-1.6517,-1.6508,-1.6518,-1.6492,-1.6492,-1.6498,-1.6492,-1.6496,-1.6485,-1.6492,-1.6492,-1.6492,0,-1.6724,-1.6708,-1.6686,-1.6664,-1.6658,-1.6646,-1.6626,-1.6612,-1.6592,-1.6583,-1.6568,-1.6556,-1.6538,-1.6537,-1.651,-1.6517,-1.6506,-1.6496,-1.6495,-1.6491,-1.6491,-1.6488,-1.6481,-1.6479,-1.6489,-1.6489,-1.6489,0,-1.6728,-1.6701,-1.6684,-1.6675,-1.6649,-1.6641,-1.6629,-1.661,-1.6598,-1.658,-1.6571,-1.6551,-1.6539,-1.6522,-1.6505,-1.6506,-1.6479,-1.6477,-1.647,-1.647,-1.6464,-1.6465,-1.6455,-1.6458,-1.6458,-1.6458,-1.6458,0,-1.672,-1.6707,-1.6685,-1.6675,-1.6659,-1.6644,-1.6628,-1.6615,-1.6597,-1.6583,-1.657,-1.6556,-1.6534,-1.6517,-1.6503,-1.6483,-1.6477,-1.6468,-1.6465,-1.6469,-1.647,-1.6461,-1.6461,-1.6458,-1.6458,-1.6458,-1.6458,0,-1.6722,-1.6707,-1.6688,-1.6665,-1.6659,-1.6648,-1.6627,-1.6616,-1.6603,-1.6584,-1.6579,-1.6557,-1.6536,-1.6518,-1.6489,-1.648,-1.6459,-1.6454,-1.6466,-1.6464,-1.6457,-1.6458,-1.6441,-1.6437,-1.6444,-1.6444,-1.6444,0,-1.6718,-1.6708,-1.6684,-1.6674,-1.6664,-1.6648,-1.6636,-1.6619,-1.6607,-1.6583,-1.6574,-1.6553,-1.6535,-1.6502,-1.6482,-1.646,-1.6455,-1.6451,-1.6452,-1.6456,-1.6454,-1.6455,-1.6453,-1.6451,-1.6451,-1.6451,-1.6451,0,-1.6713,-1.6706,-1.669,-1.6672,-1.6659,-1.6643,-1.6627,-1.6619,-1.6599,-1.6585,-1.6565,-1.6551,-1.6523,-1.6501,-1.6477,-1.6463,-1.6453,-1.6451,-1.6448,-1.6452,-1.6459,-1.6454,-1.6466,-1.6451,-1.6451,-1.6451,-1.6451,-1.6451,-1.6711,-1.6701,-1.6683,-1.6665,-1.6652,-1.6637,-1.6625,-1.661,-1.6593,-1.657,-1.6561,-1.654,-1.6518,-1.6485,-1.6471,-1.6453,-1.6451,-1.6447,-1.6446,-1.6445,-1.6445,-1.6462,-1.6448,-1.6448,-1.6448,-1.6448,-1.6448,0,-1.6704,-1.6692,-1.6676,-1.6654,-1.664,-1.6634,-1.6615,-1.6604,-1.6586,-1.6568,-1.6551,-1.6526,-1.6505,-1.6484,-1.6461,-1.645,-1.6445,-1.6445,-1.6445,-1.6442,-1.6449,-1.6453,-1.6449,-1.6449,-1.6449,-1.6449,-1.6449,-1.6449,-1.6699,-1.6682,-1.6672,-1.6647,-1.6634,-1.6615,-1.6605,-1.659,-1.6576,-1.655,-1.6533,-1.652,-1.65,-1.6475,-1.6455,-1.6449,-1.644,-1.6441,-1.6434,-1.6441,-1.6441,-1.6441,-1.6446,-1.644,-1.644,-1.6428,-1.6428,-1.6428]},{"header":{"parameterUnit":"m.s-1","parameterCategory":1,"la1":30.2991,"la2":30.254,"lo1":-89.0895,"lo2":-89.0444,"dy":0.0017,"dx":0.0017,"nx":28,"ny":28,"refTime":"2025-02-12T09:00:00:Z","depth":0,"parameterNumber":3,"parameterNumberName":"V-component_of_WINDS"},"data":[0,0,0,0,0,0,0,0,0,0,0,0,0,0,0,0,0,0,0,0,0,0,0,0,0,0,0,0,0,0,0,0,0,0,0,0,0,0,0,0,0,0,0,0,0,0,0,0,0,0,0,0,0,0,0,0,0,0,3.7108,3.7109,0,3.7245,3.7246,3.7248,3.7228,3.7225,3.7223,3.7221,3.7364,3.7369,3.7375,0,0,0,0,0,0,0,0,0,0,0,0,0,3.6831,3.6836,3.7107,3.7109,3.7111,3.7244,3.7246,3.7248,3.7228,3.7225,3.7223,3.722,3.7362,3.7369,3.7376,0,0,0,0,0,0,0,0,0,0,0,0,0,3.6958,3.6838,3.7107,3.7117,3.7119,3.7244,3.7246,3.7249,3.7229,3.7225,3.7222,3.7219,3.7359,3.7368,3.7377,3.7501,0,0,3.7404,3.7408,0,0,0,0,0,0,0,0,3.6951,3.6968,3.7114,3.7117,3.7119,3.7215,3.7201,3.7333,3.723,3.7187,3.7221,3.7217,3.7317,3.7329,3.7363,3.7508,3.7514,3.7405,3.741,3.7414,3.7417,0,0,0,0,0,0,0,3.6942,3.6962,3.7162,3.7116,3.7119,3.7116,3.713,3.7226,3.727,3.7191,3.719,3.7206,3.7318,3.7354,3.7366,3.7516,3.7404,3.7412,3.7418,3.7421,3.7772,3.7776,0,0,0,0,0,0,3.693,3.6955,3.7157,3.7166,3.7025,3.7123,3.7139,3.7188,3.7269,3.7278,3.7209,3.7204,3.7341,3.7356,3.7371,3.7523,3.7414,3.7422,3.7427,3.7768,3.7773,3.7777,0,0,0,0,0,0,3.6925,3.6949,3.7152,3.706,3.7086,3.7132,3.7187,3.7193,3.7229,3.7283,3.7291,3.7237,3.7339,3.7358,3.7469,3.7528,3.7426,3.7434,3.7764,3.777,3.7775,3.7828,0,0,0,0,0,0,3.6917,3.6947,3.6994,3.7061,3.7091,3.7247,3.719,3.7198,3.7244,3.724,3.7312,3.732,3.7337,3.7456,3.7478,3.7538,3.7441,3.7759,3.7766,3.7773,3.7821,3.7835,3.7847,0,0,0,0,0,3.6907,3.7003,3.6996,3.7021,3.715,3.725,3.7267,3.7284,3.7249,3.7297,3.7332,3.7318,3.7518,3.7467,3.7492,3.7556,3.7755,3.7764,3.7773,3.7815,3.7832,3.7846,0,0,0,0,0,0,3.6941,3.7012,3.7005,3.7126,3.7182,3.7247,3.7308,3.7301,3.737,3.7363,3.7382,3.7398,3.7511,3.7544,3.7487,3.7682,3.7632,3.7646,3.7656,3.7672,3.7685,3.7674,3.7449,0,0,0,0,0,3.6962,3.7037,3.7095,3.7196,3.7225,3.7262,3.7306,3.7314,3.7374,3.7398,3.7441,3.75,3.7576,3.7626,3.7699,3.7826,3.7842,3.7882,3.7895,3.7905,3.7918,3.7989,3.8008,3.7807,3.7807,3.7806,0,0,3.7008,3.7056,3.7102,3.7205,3.7249,3.7327,3.7282,3.7366,3.7424,3.7411,3.7518,3.7552,3.7619,3.7739,3.7794,3.7771,3.7977,3.7916,3.7924,3.7931,3.8,3.8019,3.8036,3.7813,3.7812,3.7811,0,0,3.713,3.7173,3.7263,3.7309,3.7377,3.7401,3.7423,3.7489,3.7511,3.7619,3.7611,3.7681,3.7812,3.7861,3.7902,3.8045,3.8036,3.8069,3.8136,3.8205,3.8221,3.8235,3.8288,3.8306,3.8081,3.8081,3.8081,0,3.7178,3.7294,3.731,3.7396,3.7442,3.7433,3.7525,3.7569,3.7658,3.769,3.7662,3.7827,3.7872,3.8004,3.8039,3.8073,3.8099,3.8061,3.8217,3.8232,3.8245,3.8296,3.8315,3.8084,3.8084,3.8084,3.8083,0,3.7351,3.7432,3.7496,3.7582,3.7635,3.7724,3.7754,3.7806,3.7811,3.7838,3.7949,3.8003,3.8087,3.8119,3.8124,3.8253,3.8236,3.8213,3.8163,3.8268,3.8316,3.8335,3.809,3.8088,3.8087,3.8086,0,0,3.7498,3.7592,3.7616,3.7656,3.7731,3.7794,3.7883,3.7965,3.8011,3.8073,3.8148,3.826,3.8239,3.8287,3.8297,3.8358,3.847,3.8328,3.833,3.8354,3.8618,3.8635,3.8657,3.8464,3.8468,3.8471,3.8612,0,3.7628,3.7784,3.7802,3.7941,3.8017,3.8011,3.8088,3.8144,3.8172,3.8242,3.8273,3.8352,3.8318,3.8347,3.8407,3.8444,3.8524,3.8434,3.8536,3.854,3.8521,3.8682,3.8701,3.8832,3.8631,3.8634,3.8636,0,3.7801,3.7868,3.8015,3.8082,3.8115,3.8184,3.8262,3.8328,3.8391,3.8408,3.8462,3.8465,3.8558,3.8504,3.8633,3.8572,3.8615,3.864,3.8645,3.8656,3.8595,3.8699,3.8874,3.8894,3.8666,3.8663,3.8661,0,3.7895,3.8023,3.8128,3.8162,3.8241,3.8291,3.8326,3.8386,3.8435,3.8504,3.8536,3.8614,3.8657,3.8719,3.8744,3.8702,3.8873,3.882,3.889,3.889,3.8927,3.8925,3.9113,3.8953,3.8953,3.8952,3.8952,0,3.804,3.8131,3.8171,3.8236,3.8338,3.8358,3.8458,3.8492,3.8546,3.8618,3.8617,3.8685,3.8713,3.8786,3.8806,3.8911,3.8931,3.8948,3.8952,3.8949,3.8947,3.8978,3.897,3.8958,3.8956,3.8955,3.8954,0,3.8162,3.8193,3.8307,3.8374,3.8393,3.8465,3.8523,3.8586,3.8614,3.8706,3.8728,3.8773,3.8859,3.8889,3.8993,3.9007,3.913,3.9126,3.9108,3.911,3.9179,3.9172,3.9395,3.9426,3.9244,3.9246,3.9247,0,3.8253,3.8323,3.8397,3.8445,3.8483,3.856,3.861,3.8633,3.8686,3.8764,3.8819,3.8904,3.8973,3.9111,3.9154,3.9234,3.9233,3.9305,3.9245,3.924,3.9236,3.9232,3.924,3.9317,3.9319,3.932,3.9321,0,3.8411,3.8423,3.8495,3.8573,3.8633,3.8696,3.8757,3.8796,3.8829,3.8888,3.8976,3.903,3.9137,3.9222,3.9305,3.9343,3.9339,3.934,3.9361,3.9358,3.9346,3.9355,3.914,3.9335,3.9334,3.9333,3.9332,3.9331,3.8522,3.8584,3.8646,3.8727,3.8775,3.8833,3.8896,3.8932,3.9006,3.9094,3.9103,3.9199,3.9262,3.9373,3.9415,3.949,3.9471,3.95,3.9508,3.9515,3.9521,3.9333,3.9505,3.9505,3.9505,3.9504,3.9504,0,3.8681,3.8721,3.8795,3.8881,3.8945,3.8934,3.9002,3.9056,3.914,3.9199,3.9268,3.937,3.9453,3.9502,3.9586,3.9637,3.9638,3.9659,3.9656,3.9665,3.9533,3.9508,3.9657,3.9657,3.9657,3.9657,3.9657,3.9657,3.8771,3.8877,3.8897,3.9027,3.9067,3.916,3.9199,3.9253,3.93,3.9414,3.9483,3.9514,3.9571,3.9659,3.9736,3.9748,3.978,3.9803,3.9814,3.969,3.9674,3.9659,3.9635,3.9809,3.981,3.994,3.9941,3.9942]}]]